Location: Unspecified
(47.1121°N, 116.3927°W)
Time: 19:38:46
(UTC-07:00)

ISS - Visible Passes

Search period start: 23 March 2019 00:00
Search period end: 02 April 2019 00:00
Orbit: 408 x 411 km, 51.6° (Epoch: 23 March)

Date Brightness Start Highest point End Pass type
(mag) Time Alt. Az. Time Alt. Az. Time Alt. Az.
23 Mar -3.5 20:03:58 10° SW 20:07:08 46° SSE 20:09:16 18° E visible
23 Mar -1.5 21:40:32 10° W 21:42:03 23° WNW 21:42:03 23° WNW visible
24 Mar -3.4 20:49:45 10° WSW 20:53:02 62° NNW 20:53:51 44° NE visible
25 Mar -3.8 19:59:03 10° WSW 20:02:22 88° NNW 20:05:31 11° ENE visible
25 Mar -1.9 21:36:05 10° WNW 21:38:17 30° NW 21:38:17 30° NW visible
26 Mar -2.8 20:45:15 10° W 20:48:25 42° NNW 20:49:49 26° NE visible
26 Mar -0.4 22:22:19 10° WNW 22:22:36 12° WNW 22:22:36 12° WNW visible
27 Mar -3.1 19:54:24 10° W 19:57:39 52° NNW 20:00:55 10° ENE visible
27 Mar -2.2 21:31:33 10° WNW 21:34:03 33° NNW 21:34:03 33° NNW visible
28 Mar -2.5 20:40:43 10° WNW 20:43:49 36° N 20:45:25 22° NE visible
28 Mar -0.6 22:17:33 10° WNW 22:18:11 15° WNW 22:18:11 15° WNW visible
29 Mar -2.6 19:49:51 10° W 19:52:59 39° N 19:56:08 10° ENE visible
29 Mar -2.6 21:26:50 10° WNW 21:29:31 39° NNW 21:29:31 39° NNW visible
30 Mar -2.7 20:36:03 10° WNW 20:39:11 37° N 20:40:49 22° ENE visible
30 Mar -0.9 22:12:42 10° WNW 22:13:34 17° WNW 22:13:34 17° WNW visible
31 Mar -2.6 19:45:14 10° WNW 19:48:20 35° N 19:51:25 10° ENE visible
31 Mar -3.2 21:21:58 10° WNW 21:24:51 56° NNW 21:24:51 56° NNW visible
01 Apr -3.2 20:31:14 10° WNW 20:34:27 47° NNE 20:36:07 24° ENE visible
01 Apr -1.1 22:07:52 10° WNW 22:08:53 18° W 22:08:53 18° W visible
